Location: ??????
(41.3164°N, 22.6615°E)
Time: 20:48:10
(UTC+00:00)

CAS-4A - Pass Details

Date: 10 July 2022
Orbit: 521 x 536 km, 43.0° (Epoch: 19 August)

Event Time Altitude Azimuth Distance (km) Brightness Sun altitude
Rises 20:33:18 0° 241° (WSW) 2,635 ? -20.6°
Reaches altitude 10° 20:35:32 10° 238° (WSW) 1,748 ? -20.8°
Enters shadow 20:37:22 25° 231° (SW) 1,065 ? -20.9°
